This is the latest recevied weather packets stored in our database for station/object N1TKS. If no packets are shown the sender has not sent any weather packets the latest 10 day(s).
| Time | Temp. | Humidity | Pressure | Rain* | Wind** | Luminosity | Snow |
|---|---|---|---|---|---|---|---|
| 1777681614 | 12.78° C | 70% | 1012 hPa | 0 mm | - | - | - |
| 1777681315 | 12.78° C | 70% | 1011.9 hPa | 0 mm | - | - | - |
| 1777681073 | 12.78° C | 69% | 1011.9 hPa | 0 mm | - | - | - |
| 1777681013 | 12.78° C | 69% | 1011.9 hPa | 0 mm | - | - | - |
| 1777680714 | 12.78° C | 69% | 1011.8 hPa | 0 mm | - | - | - |
| 1777680529 | 12.78° C | 69% | 1011.7 hPa | 0 mm | - | - | - |
| 1777680415 | 12.78° C | 69% | 1011.7 hPa | 0 mm | - | - | - |
| 1777680114 | 12.78° C | 69% | 1011.6 hPa | 0 mm | - | - | - |
| 1777679814 | 12.78° C | 69% | 1011.7 hPa | 0 mm | - | - | - |
| 1777679519 | 12.78° C | 68% | 1011.6 hPa | 0 mm | - | - | - |
| 1777679271 | 12.78° C | 69% | 1011.7 hPa | 0 mm | - | - | - |
| 1777679213 | 12.78° C | 69% | 1011.7 hPa | 0 mm | - | - | - |
| 1777678914 | 12.78° C | 68% | 1011.6 hPa | 0 mm | - | - | - |
| 1777678615 | 12.78° C | 68% | 1011.4 hPa | 0 mm | - | - | - |
| 1777678316 | 13.33° C | 68% | 1011.4 hPa | 0 mm | - | - | - |
| 1777678211 | 13.33° C | 65% | 1011.2 hPa | 0 mm | - | - | - |
| 1777677714 | 13.33° C | 66% | 1011.3 hPa | 0 mm | - | - | - |
| 1777677415 | 13.33° C | 66% | 1011.2 hPa | 0 mm | - | - | - |
| 1777677114 | 13.33° C | 65% | 1011.2 hPa | 0 mm | - | - | - |
| 1777676813 | 13.33° C | 64% | 1011.2 hPa | 0 mm | - | - | - |
| 1777676514 | 13.89° C | 64% | 1011.1 hPa | 0 mm | - | - | - |
| 1777676295 | 14.44° C | 60% | 1010.9 hPa | 0 mm | - | - | - |
| 1777676286 | 14.44° C | 60% | 1010.9 hPa | 0 mm | - | - | - |
| 1777676277 | 14.44° C | 60% | 1011 hPa | 0 mm | - | - | - |
| 1777676213 | 13.89° C | 63% | 1011.1 hPa | 0 mm | - | - | - |
* Rain latest hour (hover to see other rain measurements)
** Current wind speed in m/s (hover to see current wind gust speed)